Location: Boiro
(42.6475°N, 8.8834°W)
Time: 02:22:41
(UTC+01:00)

Explorer 7 - Pass Details

Date: 06 December 2021
Orbit: 483 x 674 km, 50.3° (Epoch: 23 January)

Event Time Altitude Azimuth Distance (km) Brightness Sun altitude
Rises 11:21:21 0° 301° (WNW) 2,679 9.8 18.7°
Reaches altitude 10° 11:23:39 10° 306° (NW) 1,757 8.9 18.9°
Maximum altitude 11:27:34 56° 25° (NNE) 603 7.1 19.3°
Drops below altitude 10° 11:31:17 10° 105° (ESE) 1,679 10.0 19.6°
Sets 11:33:27 0° 109° (ESE) 2,546 10.9 19.8°
